Regional Weather Roundup
Issued by NWS

Home | Current Version | Previous Version | Text Only | Print | Product List | Glossary On
Versions: 1 2 3 4 5 6 7 8 9 10 11 12 13 14 15 16 17 18 19 20 21 22 23 24 25 26 27 28 29 30 31 32 33 34 35 36 37 38 39 40 41 42 43 44 45 46 47 48 49 50
000
ASUS43 KDTX 250810
RWRMI
MICHIGAN HOURLY REGIONAL WEATHER ROUNDUP
NATIONAL WEATHER SERVICE DETROIT/PONTIAC MI
400 AM EDT THU MAY 25 2017

NOTE: "FAIR" INDICATES FEW OR NO CLOUDS BELOW 12,000 FEET WITH NO
SIGNIFICANT WEATHER AND/OR OBSTRUCTION TO VISIBILITY.

MIZ047>049-052>055-059>063-066>070-074>076-081>083-250900-
SOUTHEAST LOWER MICHIGAN

CITY           SKY/WX    TMP DP  RH WIND       PRES   REMARKS
ADRIAN         CLOUDY    58  57  97 E10       29.43F
ALMA           CLOUDY    55  54  97 N8        29.53
ANN ARBOR      CLOUDY    58  58 100 NE7       29.44F
BAD AXE        CLOUDY    55  51  88 E7        29.55
CARO           CLOUDY    56  54  92 NE3       29.52
DETROIT CITY   CLOUDY    58  57  97 E12       29.47F
DETROIT        DRIZZLE   59  57  93 E9        29.46F FOG
FLINT          CLOUDY    56  55  97 NE9       29.50S
GROSSE ILE     CLOUDY    58  56  93 E7        29.44
HILLSDALE      LGT RAIN  57  55  94 E10       29.43
HOWELL         CLOUDY    57  55  92 NE6       29.47  FOG

CITY           SKY/WX    TMP DP  RH WIND       PRES   REMARKS
JACKSON        CLOUDY    58  57  97 NE9       29.45S
LAMBERTVILLE   CLOUDY    58  57  96 E8        29.42
LANSING        CLOUDY    58  53  84 NE13      29.49F HAZE
LAPEER         CLOUDY    56  55  96 NE6       29.50
MASON          CLOUDY    56  55  97 NE9       29.48R FOG
MONROE         CLOUDY    59  57  93 E8        29.43
MT. CLEMENS    CLOUDY    58  58 100 E10       29.47F
PONTIAC        CLOUDY    57  55  93 E10       29.46F FOG
PORT HOPE        N/A     52  49  89 NE16      29.55F
PORT HURON     DRIZZLE   57  54  88 E8        29.51
TRI CITIES     CLOUDY    55  54  96 NE16      29.54S
MIDLAND        LGT RAIN  55  53  94 NE6       29.54
TROY           CLOUDY    58  56  93 E8        29.49
SAGINAW HB     LGT RAIN  55  52  88 NE12      29.52
$$
MIZ043>046-050>051-056>058-064>065-071>073-077>080-250900-
SOUTHWEST LOWER MICHIGAN

CITY           SKY/WX    TMP DP  RH WIND       PRES   REMARKS
BATTLE CREEK   CLOUDY    57  56  96 NE10      29.46F
BENTON HARBOR  CLOUDY    58  54  86 VRB6      29.48F
BIG RAPIDS     LGT RAIN  54  52  91 NE5       29.56
COLDWATER      CLOUDY    59  59 100 NE8       29.43
FREMONT        CLOUDY    55  54  95 NE9       29.54
HOLLAND        CLOUDY    58  53  84 NE8G17    29.51F
GRAND RAPIDS   CLOUDY    56  56 100 NE10      29.51S FOG
IONIA          CLOUDY    55  54  95 NE10      29.50
KALAMAZOO      CLOUDY    57  54  89 N13       29.46F FOG
LUDINGTON      MOCLDY    52  52  99 N3        29.57
MARSHALL       CLOUDY    58  57  97 N6        29.45  FOG
MOUNT PLEASANT CLOUDY    54  53  95 NE7       29.54  FOG
MUSKEGON       CLOUDY    57  54  89 NE9       29.53F
SOUTH HAVEN    CLOUDY    57  55  94 NE10      29.49
$$
MIZ016>042-250900-
NORTHERN LOWER MICHIGAN

CITY           SKY/WX    TMP DP  RH WIND       PRES   REMARKS
ALPENA         LGT RAIN  52  51  97 NE7       29.64F
BEAVER ISLAND  CLOUDY    54  49  85 NE5       29.68
BELLAIRE       CLOUDY    55  50  85 NE5       29.62
CADILLAC       CLOUDY    53  52  95 NE6       29.58
CHARLEVOIX     CLOUDY    57  51  82 NE12G20   29.67
FRANKFORT      CLOUDY    55  49  82 N6        29.61
GAYLORD        LGT RAIN  53  49  86 NE8       29.64F
GRAYLING       CLOUDY    53  51  95 NE6       29.63
HARBOR SPRINGS DRIZZLE   56  52  88 NE9       29.65
HOUGHTON LAKE  LGT RAIN  53  51  93 NE9       29.60F
MANISTEE       CLOUDY    55  51  86 N3        29.59S
OSCODA         LGT RAIN  52  50  92 N6        29.60
PELLSTON       CLOUDY    56  50  80 NE7       29.66F
ROGERS CITY    CLOUDY    49  47  91 CALM      29.67
TRAVERSE CITY  CLOUDY    52  49  89 N5        29.60F
$$
MIZ007>008-015-250900-
EASTERN UPPER MICHIGAN

CITY           SKY/WX    TMP DP  RH WIND       PRES   REMARKS
KINROSS        LGT RAIN  54  51  90 NE14      29.68F
MACKINAC ISLAN LGT RAIN  53  53 100 NE7       29.67
NEWBERRY       CLOUDY    50  49  97 N5        29.70
S. S. MARIE    CLOUDY    56  49  77 NE7       29.70S
MUNISING         N/A     43  41  93 N5        29.72S
$$
MIZ004>006-011>014-085-250900-
CENTRAL UPPER MICHIGAN

CITY           SKY/WX    TMP DP  RH WIND       PRES   REMARKS
MANISTIQUE     CLOUDY    51  48  90 N9        29.68
ESCANABA       CLOUDY    48  44  86 N6        29.69F
MENOMINEE      CLOUDY    52  47  83 N7        29.68S
SAWYER-GWINN   CLOUDY    44  42  93 N6        29.73
$$
MIZ001>003-009>011-084-250900-
WESTERN UPPER MICHIGAN

CITY           SKY/WX    TMP DP  RH WIND       PRES   REMARKS
IRON MOUNTAIN  CLOUDY    47  42  83 NW5       29.70S
HOUGHTON       CLEAR     40  37  89 NW3       29.75S
COPPER HARBOR    N/A     41  39  93 W3        29.75S
IRONWOOD       PTCLDY    37  37 100 CALM      29.75S FOG
$$

ABBREVIATIONS USED IN REMARKS
   TC - TEMPERATURE IN CELSIUS
  WCI - WIND CHILL INDEX
   HX - HEAT INDEX
  VSB - VISIBILITY





USA.gov is the U.S. government's official web portal to all federal, state and local government web resources and services.